Theta_e
316 315 314 313 313 313 313 313 313 313 314 314 314 316 315 314 313 313 315 317 318 316 315 315 315 314 314 316 318 317 317 317 316 315 315 314 313 314 315 316 316 315 313 314 314 314 315 316 316 315 316 319 322 325 324 325 328 337 342 330 329 330 320 319 318 317 320 317 315 315 315 316 315 314 314 313 310 309 309 307 307 306 305 305 305 304 303 303
318 317 316 314 314 313 313 313 313 314 314 315 316 317 317 316 314 313 314 317 318 317 316 315 316 315 315 317 319 319 319 320 319 316 315 315 314 315 316 316 315 314 314 314 314 314 315 316 315 315 318 321 324 323 323 326 327 332 332 324 331 331 320 318 315 315 317 315 315 315 315 316 314 313 315 314 311 309 308 307 306 305 304 304 303 303 303 302
319 318 318 316 314 314 314 314 313 314 315 316 317 318 318 318 317 314 313 316 318 318 316 316 316 315 316 318 319 319 319 321 322 318 316 315 315 316 315 315 314 314 315 315 316 314 314 315 313 315 319 321 324 326 324 326 326 328 327 325 334 330 320 318 315 314 315 315 316 316 315 315 313 313 314 313 312 310 309 308 306 305 304 304 304 302 302 302
320 320 319 318 316 315 315 314 314 314 315 316 317 318 318 318 318 316 314 315 318 318 316 316 316 315 316 316 317 317 319 325 325 318 316 316 316 315 313 313 314 315 316 316 317 316 315 314 312 315 320 324 327 327 324 324 323 324 323 327 332 323 319 319 315 315 315 316 316 315 315 314 313 313 313 314 314 311 308 307 305 304 303 304 304 302 302 301
321 321 320 319 317 316 316 316 315 315 315 316 317 318 318 319 319 318 315 314 317 318 317 316 316 317 315 316 316 316 323 329 323 316 315 316 315 313 312 312 314 316 315 316 316 316 316 314 315 319 322 323 325 324 321 321 320 321 321 324 324 317 318 319 315 316 316 316 316 314 313 312 313 313 312 315 315 310 306 306 304 303 303 303 303 302 301 300
321 321 320 320 318 317 317 317 316 316 317 317 318 318 318 319 319 319 317 314 316 318 317 316 316 317 316 316 314 315 326 328 319 315 315 315 314 312 312 312 314 316 315 316 315 315 318 316 319 321 319 318 320 319 319 320 318 317 319 318 318 316 317 316 315 317 316 315 315 312 311 312 313 312 310 312 311 307 305 304 303 302 302 301 301 301 302 301
321 321 320 320 319 318 317 318 318 318 318 319 319 319 319 319 319 320 318 315 315 317 318 316 315 318 318 317 317 322 331 327 315 314 314 314 314 312 312 312 313 316 316 315 315 316 318 319 320 318 318 320 319 317 318 320 318 318 321 318 316 317 316 316 315 316 316 314 313 312 312 312 314 312 309 308 306 305 304 302 301 301 301 300 300 301 301 301
319 320 320 320 320 318 318 318 319 319 320 321 321 321 320 320 320 319 319 316 315 317 318 316 315 318 318 317 325 330 330 324 315 313 314 313 314 312 312 312 312 315 316 315 315 317 319 319 318 317 318 320 317 316 318 318 319 320 321 317 316 317 316 316 315 314 315 313 313 314 314 313 313 311 308 307 305 304 303 302 301 300 300 300 300 301 300 299
318 319 320 320 320 319 318 319 320 321 321 322 322 322 321 321 321 321 320 317 315 317 318 317 315 317 316 317 325 329 323 318 313 312 313 313 314 313 313 312 311 313 316 317 315 315 320 319 318 317 317 319 317 318 318 315 318 319 317 316 315 317 316 315 314 314 314 312 312 314 314 313 311 311 309 306 305 304 302 302 302 301 301 300 300 300 299 298
317 318 319 320 320 319 318 319 320 321 322 323 323 322 321 321 321 321 320 318 315 315 318 318 316 316 317 320 325 326 319 314 312 312 312 313 314 313 313 312 311 312 315 318 316 314 317 317 317 317 317 319 316 317 318 314 317 316 315 316 315 316 315 315 314 313 313 312 312 312 313 313 311 313 311 306 304 303 303 302 301 301 301 300 300 300 298 298
317 318 319 320 319 319 318 319 320 322 323 323 323 321 321 321 321 320 320 318 315 315 318 317 316 316 317 321 327 326 317 312 313 312 311 312 313 313 313 312 311 311 313 317 317 314 314 314 314 315 316 317 315 316 317 314 315 315 314 314 315 315 314 314 313 313 313 312 313 312 312 312 312 314 311 305 304 303 303 302 301 301 301 300 301 301 298 297
317 318 319 320 320 319 318 319 320 322 323 323 323 321 321 321 320 319 319 317 315 316 317 317 316 314 317 322 326 322 314 313 314 311 311 312 312 313 313 313 311 311 312 315 316 313 311 312 314 318 317 314 315 315 315 313 313 314 313 313 315 314 313 314 313 314 313 311 315 313 311 314 313 312 309 305 304 303 302 302 301 301 300 300 301 301 299 297
317 317 318 319 320 319 319 319 320 322 323 323 322 321 320 319 318 318 318 316 315 316 317 316 315 314 320 325 320 315 313 314 313 311 311 310 311 314 315 313 312 311 312 312 314 312 311 311 313 318 316 313 315 313 312 312 312 314 313 314 316 314 316 316 313 314 312 312 316 312 313 318 313 309 307 305 304 303 303 302 301 301 300 300 300 301 300 298
316 317 318 319 319 319 319 319 320 322 322 323 322 320 319 318 318 317 317 316 316 317 317 315 315 317 322 323 315 313 314 314 313 312 310 309 311 315 316 313 312 312 311 312 313 311 311 311 312 316 315 314 314 312 314 314 313 314 312 317 320 317 321 319 312 315 312 313 316 310 312 315 310 308 306 305 304 303 303 302 301 301 300 300 300 301 301 299
315 316 317 318 320 320 319 319 320 321 322 322 321 320 319 317 317 316 316 315 317 318 317 317 317 319 323 320 314 313 315 315 315 312 311 310 310 313 314 310 312 313 312 312 312 312 311 310 312 317 316 315 313 312 317 317 317 315 313 323 325 318 322 318 311 315 312 313 314 310 314 315 309 308 306 304 304 303 302 302 301 301 300 300 301 301 301 300
314 316 317 318 319 319 319 319 320 321 322 322 321 320 318 317 316 316 316 315 317 318 318 321 319 317 321 320 315 314 315 316 316 313 312 312 309 311 311 310 313 314 314 313 312 311 310 312 316 315 314 313 313 315 322 327 328 323 317 321 324 318 317 315 312 315 313 313 312 310 313 314 310 308 307 304 304 303 302 301 301 300 300 300 301 301 302 301
314 315 317 318 319 320 319 319 320 321 321 321 321 320 317 316 317 317 316 313 317 319 317 320 320 317 319 318 315 317 317 316 316 313 313 312 310 310 310 311 312 311 314 313 312 313 312 314 314 312 314 313 315 321 324 327 330 330 324 320 320 317 313 313 314 313 313 312 312 311 311 312 312 309 307 305 303 302 301 301 301 300 300 301 302 302 302 302
315 315 317 318 318 319 319 319 320 319 319 321 320 319 317 316 316 318 317 314 316 320 319 321 322 319 318 317 317 318 317 316 315 313 313 312 310 311 311 311 311 311 315 314 313 314 312 315 318 320 324 317 316 321 317 319 324 326 325 319 318 318 313 312 313 312 313 312 312 313 311 312 311 308 307 304 302 302 301 301 300 300 301 302 302 302 302 302
315 317 317 317 318 318 318 318 319 318 317 319 319 318 315 314 318 318 315 313 318 321 321 323 321 318 319 319 319 317 315 314 313 313 313 312 310 311 313 312 313 316 319 321 321 317 317 325 328 329 328 315 312 317 314 319 323 318 318 317 316 316 313 311 311 311 312 311 312 312 312 312 309 308 307 305 303 302 301 300 300 300 301 302 303 302 302 301
316 319 317 317 318 318 318 317 319 317 314 315 316 315 312 317 325 324 318 317 318 317 320 322 319 319 321 320 319 315 313 314 313 314 313 310 310 312 313 312 318 324 322 321 321 321 325 328 327 329 324 311 309 314 314 317 316 312 314 315 315 315 313 311 312 312 311 311 314 313 312 311 309 309 307 305 303 302 301 300 300 300 301 302 303 302 301 300
316 319 318 318 317 317 317 316 317 315 312 311 311 311 311 313 318 319 319 319 314 311 318 321 317 318 318 317 316 312 314 316 313 314 312 310 312 313 313 314 321 328 324 321 322 325 327 323 326 330 320 309 309 312 313 313 311 312 314 314 316 316 313 312 312 311 309 311 315 314 311 311 310 309 307 304 303 301 301 300 300 300 301 302 302 301 300 299
315 320 319 317 316 316 316 314 315 314 313 311 308 311 311 310 312 311 313 318 316 313 318 319 316 317 315 314 314 311 315 318 314 316 312 309 314 314 314 317 318 321 322 325 329 328 325 324 327 324 314 310 311 312 312 312 312 314 314 314 316 316 315 315 313 311 309 310 314 314 310 309 309 309 307 304 302 301 300 300 300 300 301 302 301 300 299 298
314 319 319 317 315 315 313 312 313 311 313 310 306 308 308 308 311 310 312 320 322 319 320 320 319 319 316 315 313 312 316 317 315 317 312 310 315 314 315 316 315 318 319 321 322 320 324 328 324 316 312 310 311 313 313 311 313 315 315 315 316 317 317 317 315 313 311 309 312 312 309 307 307 308 307 303 302 302 301 302 302 301 301 301 301 301 299 297
314 318 319 316 314 313 312 312 311 309 314 313 306 305 306 309 311 312 317 323 323 320 319 319 319 320 319 314 311 312 315 314 313 313 309 310 313 313 314 314 315 319 319 315 315 317 320 321 316 314 314 312 313 316 316 314 317 320 319 316 317 316 315 317 316 313 311 312 313 310 308 310 309 307 306 302 302 302 301 301 301 301 302 301 301 300 299 299
312 317 319 316 313 312 310 312 310 309 315 316 308 304 306 311 312 312 318 322 322 324 319 316 319 321 316 311 313 314 313 313 312 310 307 308 311 312 312 312 315 321 319 313 313 316 316 314 313 315 316 316 318 320 321 320 318 321 322 319 318 316 314 317 317 313 312 314 314 309 309 313 312 308 305 302 301 301 300 300 299 300 301 301 299 298 299 299
313 316 318 316 312 309 312 317 313 310 317 318 310 304 305 309 310 311 317 321 323 325 321 317 320 320 314 313 315 314 316 315 309 307 307 307 308 310 313 314 315 318 315 312 314 316 313 311 314 318 319 318 318 320 323 320 316 318 320 318 317 313 312 315 314 313 314 314 312 309 310 311 310 309 305 301 302 301 300 299 299 299 299 299 299 299 298 297
314 315 317 317 311 306 313 320 313 312 319 318 309 302 305 309 308 311 320 322 322 324 324 320 317 316 315 314 312 314 320 317 309 306 307 308 308 309 315 317 317 316 312 315 325 324 314 311 314 316 317 317 316 318 320 319 318 319 316 313 312 311 312 314 312 311 312 311 310 309 310 308 308 309 305 301 302 301 299 299 298 298 298 298 298 298 297 297
314 314 317 317 311 303 307 311 309 313 316 312 306 303 307 310 309 316 321 316 318 325 325 319 314 314 315 312 311 315 316 314 314 311 305 306 308 309 314 316 317 317 313 318 328 324 314 313 318 317 316 318 318 319 319 317 316 317 314 310 309 311 312 312 311 311 309 308 309 310 309 309 311 312 306 302 303 302 299 298 297 297 297 297 297 297 296 296
313 315 316 316 313 305 305 307 307 312 313 307 304 305 308 308 311 324 324 312 316 324 320 316 314 315 316 313 313 315 313 312 316 312 305 306 307 308 312 312 311 311 312 316 320 318 313 314 319 320 317 317 319 319 318 317 313 312 311 310 311 313 311 309 310 309 307 308 310 310 309 308 311 314 308 303 304 304 300 297 296 296 296 296 297 297 296 295
313 316 317 316 315 310 307 307 308 310 308 304 304 306 310 312 318 326 321 313 319 322 316 316 318 317 317 316 316 315 313 314 313 309 308 308 307 308 308 308 309 312 314 316 315 315 312 309 311 314 313 316 317 314 312 313 311 309 309 312 314 314 311 309 310 309 309 312 313 310 309 307 308 312 308 304 306 305 300 296 296 295 295 296 296 296 297 297
313 316 316 316 317 312 306 309 312 309 304 304 306 308 313 320 324 323 317 313 316 319 317 317 319 318 318 320 320 315 313 315 313 310 312 311 310 311 310 313 320 323 323 322 322 319 313 310 311 311 311 313 313 310 311 312 311 311 312 312 314 317 315 312 313 310 311 318 316 308 308 307 307 309 307 305 304 303 300 296 295 295 295 296 297 297 298 297
313 316 317 317 318 314 309 310 314 310 303 304 308 313 319 319 319 322 324 319 315 318 321 321 320 320 321 322 325 320 316 319 315 313 318 316 313 318 319 321 327 328 327 326 326 323 318 317 314 310 309 311 312 311 313 314 312 313 314 311 312 318 319 316 316 312 311 316 312 304 305 306 305 307 308 306 302 299 299 296 295 294 294 296 297 297 297 297
313 316 317 317 318 317 313 309 309 307 303 304 310 318 322 318 318 323 325 320 316 319 324 324 323 324 323 322 328 326 319 323 319 313 318 317 315 324 325 321 322 324 324 322 321 322 323 321 313 309 311 311 312 313 316 317 312 312 314 313 314 316 316 316 316 315 315 317 309 301 303 306 305 306 306 303 299 297 297 295 295 295 295 296 296 296 297 296
315 315 317 317 317 318 317 313 309 303 303 308 313 319 320 319 324 324 321 320 319 320 323 325 323 322 321 322 329 326 320 325 322 314 317 316 316 324 325 318 318 320 320 318 319 318 321 325 320 315 313 311 311 314 320 320 313 311 312 313 314 314 316 318 317 316 316 316 309 302 303 309 309 306 302 298 296 295 295 294 295 295 295 296 296 296 297 295
315 315 316 317 317 318 318 317 313 302 305 312 311 317 319 319 323 322 322 324 322 321 321 322 323 322 323 326 328 324 318 323 321 314 317 319 318 325 328 323 319 317 319 321 321 315 317 325 318 308 307 309 311 311 312 314 313 311 308 308 311 312 314 315 313 312 309 309 307 304 306 309 306 300 296 295 295 294 295 294 295 295 296 297 296 296 295 294
314 315 315 315 317 318 317 319 313 303 308 312 308 314 316 317 325 324 323 324 323 325 321 319 322 322 325 327 326 322 316 318 320 316 318 318 317 322 326 326 321 315 316 323 323 317 319 323 312 304 305 306 306 305 305 310 314 309 305 308 311 309 307 308 310 308 306 307 307 306 307 307 304 299 294 294 295 294 294 294 293 295 296 296 296 295 295 293
314 314 314 314 316 318 317 318 312 304 310 311 308 315 314 314 324 324 323 322 321 326 322 320 322 322 327 327 325 323 317 317 318 317 321 320 316 318 319 319 319 314 315 319 321 319 320 320 310 307 309 303 300 303 303 304 308 308 308 311 309 305 304 305 308 308 306 307 308 306 306 305 306 304 296 293 295 294 293 293 293 295 295 295 296 295 294 293
314 312 313 315 316 317 317 316 309 306 311 309 307 315 316 315 317 317 322 321 318 322 320 320 320 319 325 325 324 324 318 318 319 317 323 321 316 319 319 317 315 312 313 314 316 318 319 320 313 305 307 303 300 305 306 302 302 306 308 306 305 307 306 305 307 309 309 310 311 309 306 304 305 304 297 294 295 294 293 293 293 294 295 295 295 294 293 293
313 312 313 314 315 317 317 313 308 308 312 307 305 313 316 316 314 315 322 322 320 322 320 321 319 316 322 323 323 324 317 319 321 316 318 320 317 318 317 317 315 310 311 312 314 317 316 321 318 304 302 304 302 305 311 306 301 302 303 301 301 304 306 305 305 307 310 311 311 311 309 307 305 303 298 295 295 294 293 293 294 294 294 295 295 294 294 294
312 314 316 314 314 316 314 310 309 310 309 305 307 312 314 316 315 315 319 319 320 320 319 323 320 315 320 321 324 325 318 319 322 318 318 318 318 318 314 316 316 310 310 311 312 313 312 317 318 306 301 305 306 306 310 309 304 301 301 300 300 300 302 305 304 303 306 308 309 309 309 308 306 302 299 298 296 294 294 295 296 296 294 294 294 294 294 294
312 315 315 312 313 313 311 311 312 309 307 308 309 310 312 315 316 316 317 317 317 317 318 323 322 318 317 317 321 325 320 320 320 317 319 317 316 319 316 316 316 311 310 311 310 312 314 315 315 310 306 308 309 307 306 308 307 303 302 302 302 300 302 306 305 303 303 305 306 307 308 309 305 299 298 298 296 295 295 296 297 296 294 294 294 294 294 293
313 315 314 311 311 311 310 314 314 309 309 311 310 310 312 313 315 316 317 317 317 316 315 318 320 319 317 316 320 323 322 323 321 317 319 319 316 318 318 315 313 311 311 312 311 311 314 313 310 311 311 309 306 304 303 304 304 303 303 303 303 302 302 306 307 306 304 301 302 303 305 305 301 297 297 297 296 296 296 296 296 295 294 294 294 293 293 292
314 314 311 310 310 310 313 317 316 313 313 313 312 314 313 313 315 316 318 317 317 316 315 315 316 316 317 316 318 321 322 324 323 320 320 320 317 316 315 311 309 311 312 311 308 307 309 311 310 311 314 309 300 297 299 300 299 300 301 301 301 301 302 304 305 306 305 302 301 301 303 302 299 297 297 297 296 296 296 296 296 295 294 294 293 293 292 292
314 313 310 309 309 310 314 318 317 316 315 315 315 316 315 315 315 315 317 317 317 318 316 315 315 314 316 316 315 318 320 319 320 319 320 322 317 309 309 310 308 310 312 311 311 311 311 313 313 313 315 314 305 300 300 299 297 298 299 300 300 300 301 301 301 302 302 302 301 302 303 303 299 297 297 296 296 296 296 296 296 295 294 294 293 293 292 291
314 314 312 310 308 310 314 316 315 316 316 316 317 317 316 317 316 315 317 316 316 319 317 316 318 315 316 318 315 316 317 316 318 318 317 320 313 303 304 306 305 308 311 311 311 312 313 313 313 314 317 318 315 313 311 305 299 297 298 299 299 299 299 300 301 301 301 301 301 301 302 302 298 296 297 296 296 297 296 295 295 294 294 293 293 293 291 290
314 314 313 311 308 309 312 313 314 315 316 316 317 317 316 317 316 317 319 317 315 316 316 318 318 315 316 317 316 316 316 314 316 317 317 320 313 302 300 302 303 306 308 308 309 311 312 310 309 313 317 316 316 315 311 305 301 300 300 298 298 299 299 299 301 301 301 301 301 301 301 301 299 297 297 295 295 296 295 294 294 293 293 293 293 292 291 290
313 313 313 312 311 310 311 312 313 315 315 316 316 316 317 317 316 317 319 318 316 315 315 316 316 315 316 316 315 316 315 314 315 315 316 320 312 301 298 299 300 303 304 304 306 309 310 309 307 309 312 312 314 314 309 304 303 304 303 298 297 299 300 300 301 300 301 302 303 303 301 302 301 300 298 296 295 295 295 294 294 293 293 293 292 292 292 291
313 313 312 312 312 312 311 312 313 314 314 315 315 315 316 317 317 317 317 317 317 316 316 317 316 315 316 316 316 316 315 315 315 314 314 317 312 304 300 299 298 300 302 301 302 305 309 309 308 308 308 308 309 309 308 306 304 304 303 299 297 298 299 300 300 299 300 301 302 303 302 302 301 300 299 298 296 296 296 295 295 294 293 292 292 292 291 291
313 313 313 311 311 312 312 312 312 313 314 314 314 315 315 316 316 317 317 317 317 316 316 317 317 315 315 315 315 316 316 316 316 315 314 315 315 310 308 306 301 298 299 299 299 303 307 308 307 308 308 308 307 307 306 305 304 304 303 300 298 298 298 298 298 298 298 299 300 300 300 300 300 299 298 298 298 297 296 295 294 293 293 293 293 291 290 290
313 313 313 312 310 310 311 312 312 313 314 314 314 314 314 315 315 316 317 318 318 317 316 317 317 316 316 316 315 315 316 316 317 317 315 315 315 313 312 313 306 298 296 298 299 302 305 306 307 306 307 308 307 306 305 303 303 303 302 301 299 298 298 297 297 297 297 298 298 298 298 298 298 298 298 297 297 297 295 294 293 293 293 294 292 291 290 289
312 311 312 313 312 310 311 311 311 313 314 314 314 314 314 315 315 315 316 317 317 317 316 316 317 317 316 316 315 315 314 314 316 316 316 316 316 314 313 312 308 301 297 298 300 302 303 305 305 304 307 309 306 303 302 301 300 300 300 300 299 299 299 298 298 297 297 297 297 297 298 298 297 298 298 297 297 296 294 294 293 293 293 292 291 291 290 288
312 311 310 312 313 311 311 311 311 312 313 312 313 313 314 315 314 315 317 316 316 317 316 316 316 316 316 316 315 314 314 315 316 314 313 314 314 313 313 310 308 305 300 297 300 302 302 304 305 304 307 308 302 299 298 298 301 303 302 301 299 299 299 299 299 298 297 297 298 298 298 298 298 299 298 297 296 295 294 294 293 293 292 291 290 290 288 286
Wind_Speed
21 23 24 24 25 25 26 26 26 27 28 28 28 29 29 29 27 26 26 26 26 21 16 11 6 8 10 11 11 12 12 12 15 19 14 8 14 15 14 12 11 12 11 8 11 11 11 8 6 7 3 3 1 0 2 2 1 4 4 3 2 2 1 1 1 1 3 2 1 2 3 6 1 2 1 6 15 12 11 12 10 12 12 12 15 16 19 22
21 22 23 24 24 24 25 25 26 26 27 27 28 28 29 29 27 26 25 25 25 21 15 12 6 7 10 10 9 9 7 6 10 15 12 13 17 15 12 11 10 11 12 10 12 12 8 5 9 10 4 1 2 1 3 2 2 3 2 2 2 4 2 2 4 2 3 4 0 3 3 6 1 1 2 5 9 10 12 8 8 11 10 12 15 17 19 21
20 21 22 23 23 24 24 25 25 25 26 26 26 27 28 28 28 26 25 24 23 21 15 12 8 5 11 10 8 4 2 3 6 7 11 16 15 12 11 11 11 11 12 11 12 12 8 9 11 7 2 2 2 1 2 2 2 2 3 2 5 5 2 1 6 4 3 5 3 4 2 4 1 1 2 6 7 7 9 6 6 9 8 8 9 14 18 19
19 20 21 22 22 23 24 24 24 24 24 25 25 26 26 27 28 27 25 24 22 20 15 11 9 2 9 10 6 2 3 5 3 4 11 14 11 10 10 10 11 11 12 14 12 12 10 12 11 3 1 3 3 2 2 1 2 1 2 2 7 1 2 3 5 6 4 6 4 2 4 3 4 2 3 7 7 5 4 5 8 11 9 8 6 10 15 17
19 20 21 21 22 23 23 23 23 23 23 23 24 25 25 26 27 27 25 23 21 19 15 10 8 5 3 9 7 1 4 4 2 5 10 11 10 9 10 11 11 11 13 14 13 13 10 7 4 2 2 2 3 4 1 2 2 1 1 4 4 2 2 4 4 6 5 6 5 4 4 3 4 4 2 7 7 3 4 7 11 12 10 10 8 9 12 13
18 19 20 21 21 22 22 23 23 22 22 22 23 23 24 24 25 26 25 23 20 18 15 10 6 5 3 4 7 3 2 1 2 7 10 9 8 8 11 12 11 11 12 14 15 14 11 6 4 4 2 2 1 1 1 2 3 0 4 2 2 2 1 4 4 4 5 7 5 2 1 2 4 5 3 7 8 6 8 10 12 12 13 14 12 10 9 9
18 19 20 20 21 21 22 22 22 22 22 22 22 22 23 23 23 25 24 23 20 17 15 10 4 2 5 3 3 0 3 2 3 7 9 7 6 8 11 12 12 10 11 15 16 11 7 8 6 2 3 3 1 0 1 1 3 3 3 3 3 4 3 3 4 4 6 6 1 2 2 2 5 5 4 8 8 9 10 11 14 15 16 16 12 9 8 9
18 19 19 20 20 21 21 22 22 22 22 21 21 21 21 22 22 23 23 22 19 17 14 10 4 2 2 2 1 2 2 2 3 6 7 5 5 9 9 10 13 11 12 14 13 7 3 6 5 2 3 2 2 3 2 3 2 3 2 3 2 4 4 3 5 5 4 3 2 6 6 5 5 8 5 8 9 9 11 11 13 14 13 12 9 8 7 9
18 18 19 20 20 21 21 21 22 22 22 22 21 21 21 21 21 22 22 20 17 17 14 9 6 2 3 2 3 2 2 1 3 6 6 4 5 8 8 11 13 11 11 11 13 10 3 3 3 2 1 2 2 4 2 4 2 2 1 2 2 4 4 2 3 3 2 1 3 6 6 5 6 10 4 6 9 9 10 10 10 11 10 9 8 7 7 8
17 18 19 20 20 21 21 21 22 22 22 22 22 21 21 21 21 22 22 19 16 15 14 8 5 3 2 1 5 1 2 2 5 5 5 5 5 5 7 11 12 11 10 9 13 11 4 1 3 1 1 2 2 4 1 3 3 1 2 3 3 5 4 0 1 1 1 1 3 5 3 4 3 5 3 6 8 10 11 10 9 10 9 8 6 6 8 10
16 17 18 19 20 20 21 21 22 22 22 22 22 21 21 21 22 22 21 18 14 14 14 8 5 4 3 3 4 2 2 2 5 7 7 7 6 5 8 10 11 10 8 8 9 7 4 2 4 1 1 1 3 4 2 1 1 1 3 5 7 5 3 1 2 2 1 1 3 4 2 4 3 2 7 10 9 10 12 10 9 9 7 7 7 5 7 10
15 16 17 19 19 20 21 21 22 22 22 23 23 22 22 22 22 22 20 17 13 13 13 7 5 5 2 3 3 4 2 3 5 8 8 8 7 7 9 8 10 9 6 5 5 5 5 4 4 2 1 1 3 2 0 2 0 2 4 2 6 4 2 4 3 2 2 1 3 4 4 2 2 4 10 11 9 9 11 10 8 8 7 6 6 5 5 9
14 15 17 18 18 20 20 21 22 22 23 23 23 23 22 23 23 21 18 15 11 11 10 6 4 3 1 1 2 4 4 3 5 8 8 8 7 6 7 7 9 8 5 4 2 4 5 3 3 1 2 1 2 2 0 1 1 1 2 2 2 6 4 6 4 1 3 2 3 4 3 5 2 7 11 11 11 10 10 9 8 7 6 6 5 4 5 8
14 14 16 17 18 19 19 21 22 22 23 23 24 24 23 23 22 19 16 13 10 9 7 4 2 1 2 0 3 5 3 3 5 8 8 8 6 4 5 6 6 5 4 3 2 2 3 3 3 0 2 2 2 3 3 3 2 1 1 2 3 2 4 6 3 3 4 4 1 5 3 6 3 10 12 10 11 12 10 8 7 7 6 6 5 5 5 6
13 14 15 16 17 18 19 21 21 23 23 23 24 23 24 23 19 17 12 10 10 7 3 1 1 2 2 1 3 4 2 2 3 8 9 9 8 3 4 5 3 3 4 3 2 2 2 2 2 1 3 2 1 3 4 4 3 2 1 3 2 3 4 6 3 5 6 3 2 5 3 5 5 10 9 8 9 10 10 8 7 7 6 6 4 5 5 5
12 13 14 15 17 17 19 20 21 23 23 24 25 23 24 19 17 14 7 10 11 4 1 1 0 1 1 1 3 4 2 2 2 6 7 9 8 5 6 5 2 2 2 1 1 2 1 2 1 1 1 2 3 3 3 4 4 3 2 2 3 2 3 3 4 3 6 1 0 4 3 4 4 8 7 7 8 9 10 8 7 7 6 6 4 5 5 4
12 13 13 14 16 16 18 19 21 22 23 25 24 25 23 15 15 10 1 13 13 1 3 2 1 1 1 1 3 2 1 1 2 4 4 8 7 6 6 3 3 3 2 1 0 1 2 1 0 0 2 2 2 3 5 4 4 4 2 1 4 3 3 2 5 4 3 3 3 3 4 6 4 7 7 6 9 9 9 8 8 7 6 5 5 5 5 4
11 12 12 13 15 15 16 18 20 22 23 23 23 25 20 12 13 3 2 17 12 3 2 2 2 2 1 1 1 1 1 3 5 3 3 7 7 6 4 1 3 4 3 2 1 1 1 1 1 2 3 4 4 5 3 3 3 3 3 3 4 4 3 4 4 3 3 3 5 3 5 7 4 6 6 6 8 9 9 8 7 7 6 6 5 5 4 4
11 11 12 12 14 14 15 17 19 21 22 23 23 21 13 9 7 2 5 18 7 3 1 1 2 1 3 2 1 2 4 5 4 2 1 6 6 5 2 1 4 4 3 3 3 1 1 3 4 3 2 2 2 4 3 5 6 6 5 3 4 5 5 6 5 4 4 3 6 6 6 6 4 7 7 6 7 8 8 7 6 6 6 6 5 5 5 4
10 10 11 12 13 13 14 16 17 20 20 21 22 16 7 7 5 2 9 11 1 2 3 3 2 2 3 2 1 5 5 4 1 1 2 7 7 3 1 2 5 5 3 2 5 3 4 4 4 2 4 4 2 4 5 5 4 3 3 3 5 6 6 7 5 3 3 3 6 7 7 7 5 8 9 7 7 8 9 8 7 6 6 6 5 5 5 5
10 10 10 11 11 12 13 14 16 17 16 17 18 10 2 3 3 3 6 6 7 6 4 2 1 3 4 2 2 4 2 0 2 2 3 7 5 1 1 2 5 4 3 2 3 3 5 4 5 6 8 6 4 5 3 3 3 2 3 4 5 5 7 8 5 3 2 1 5 5 6 8 7 9 8 8 8 10 11 10 9 8 7 6 6 6 5 3
10 9 10 10 10 11 11 13 15 14 13 14 13 8 5 3 2 2 1 5 9 6 2 1 1 3 3 2 2 2 3 1 3 4 4 6 2 1 1 3 4 2 4 3 3 5 5 4 8 7 6 3 3 4 4 3 3 3 3 2 5 5 5 7 3 1 1 1 4 5 7 8 9 10 8 11 11 9 9 9 9 9 8 6 6 6 4 3
11 9 10 10 10 10 10 11 11 11 11 11 10 7 4 3 3 3 2 2 7 4 0 1 1 2 2 1 2 2 2 0 2 4 6 6 2 1 1 3 2 1 3 4 3 2 4 6 7 5 5 3 1 1 4 2 3 4 4 2 5 4 2 4 4 4 4 2 4 7 10 8 8 9 6 9 8 5 5 7 7 7 8 7 7 6 5 5
12 10 10 10 10 9 9 9 7 8 9 8 8 6 3 2 3 3 1 1 5 4 1 2 2 2 2 1 1 3 1 1 2 2 5 4 1 1 2 3 2 2 0 1 5 3 7 7 3 5 5 4 1 1 3 3 3 4 5 5 6 4 4 6 3 5 5 4 5 7 9 6 7 9 6 4 4 6 6 7 7 6 7 7 6 5 5 6
11 10 10 10 10 8 7 7 3 5 6 3 5 5 3 3 4 2 2 1 4 5 1 1 1 1 3 2 2 2 0 1 1 2 4 3 2 1 1 2 2 1 3 1 1 3 7 5 3 5 2 3 3 3 3 6 3 5 5 7 6 4 4 5 4 5 5 5 4 1 4 6 3 6 6 4 5 7 6 7 8 6 6 6 6 6 5 5
11 11 10 10 10 9 6 3 2 5 4 1 3 4 2 3 5 2 2 3 3 4 1 1 0 2 3 2 1 2 1 3 1 1 2 3 1 1 1 0 1 1 3 1 2 3 3 1 4 5 3 2 2 4 4 6 3 3 4 4 5 4 1 4 3 3 2 4 3 3 1 7 2 4 8 7 8 9 6 7 8 7 6 6 6 6 6 5
12 11 11 10 10 10 5 1 2 3 2 1 3 3 1 3 4 3 2 4 4 3 3 1 1 2 3 1 2 3 0 2 1 1 1 1 2 2 1 1 1 1 2 2 3 3 2 2 3 4 4 2 3 4 4 6 5 4 4 4 4 1 4 5 2 3 4 2 4 2 3 7 7 5 8 11 10 9 8 8 8 8 7 7 6 6 6 6
13 11 11 9 9 8 5 2 3 2 2 2 3 2 1 3 4 2 4 2 4 1 2 1 1 2 1 1 2 2 2 1 2 1 1 0 2 2 1 3 4 3 2 5 2 5 2 2 3 4 3 3 5 5 6 7 3 5 5 4 2 4 6 5 4 6 2 3 5 6 5 4 8 4 5 9 10 9 10 11 10 9 8 7 7 6 6 6
12 9 11 9 8 5 3 3 4 3 2 2 3 1 3 4 3 3 4 0 3 0 1 1 2 1 1 2 1 1 1 1 1 2 2 1 1 2 1 2 5 4 2 4 6 7 2 3 6 7 4 5 5 5 6 7 3 4 4 2 2 4 5 4 4 4 2 1 7 7 7 4 7 2 5 6 8 11 11 10 10 9 8 8 7 6 6 5
10 8 10 9 7 5 4 5 6 5 3 2 1 2 3 2 3 4 1 3 2 0 1 1 1 1 3 2 2 1 2 2 1 1 2 1 2 3 1 1 4 2 3 2 4 6 2 0 2 4 4 5 5 3 3 4 3 1 2 2 4 4 2 1 2 1 3 4 9 7 10 7 5 3 6 6 6 9 10 9 10 9 8 8 7 6 6 4
9 8 9 8 8 6 5 5 5 4 3 1 2 2 1 1 4 4 4 5 2 1 1 1 1 1 4 3 2 1 2 2 1 2 0 0 2 4 2 2 3 3 3 4 4 5 3 1 1 1 2 4 5 1 1 2 2 3 3 3 4 5 3 4 3 3 1 6 6 5 8 7 6 5 6 7 5 8 13 13 14 12 9 8 7 6 5 5
10 9 9 8 8 8 6 5 4 3 1 3 2 2 3 2 1 3 5 3 2 2 2 2 2 2 3 2 1 3 2 2 2 3 3 2 1 1 1 3 1 3 4 2 3 6 3 4 3 1 1 4 6 1 3 5 4 4 4 4 3 5 3 3 3 1 3 6 4 2 2 4 9 7 6 9 7 8 13 13 14 12 10 8 7 5 5 4
11 11 10 9 9 9 9 9 8 5 1 4 1 3 6 2 4 6 5 3 2 3 2 2 2 3 4 2 2 3 1 2 4 2 2 2 0 3 3 4 5 2 4 2 2 4 4 5 2 0 2 2 7 4 2 1 2 4 3 3 2 1 3 5 4 3 4 5 4 1 2 3 7 5 6 9 7 7 10 10 11 10 9 8 7 6 5 5
11 13 13 11 11 11 11 12 10 5 3 3 2 4 5 4 6 5 5 6 3 0 2 2 3 2 2 1 4 3 1 4 3 3 0 2 1 2 4 4 4 4 1 1 2 2 2 5 3 4 2 3 6 5 5 4 4 4 4 5 4 3 2 5 3 4 6 5 4 1 1 4 3 4 5 5 6 6 8 9 8 8 8 7 6 6 6 6
11 15 15 12 13 13 11 12 9 4 4 4 4 3 5 5 4 3 5 5 2 1 1 1 4 3 2 3 3 3 2 4 1 4 1 2 3 4 3 4 5 5 4 1 2 2 3 6 4 1 0 4 4 3 3 6 2 2 3 4 2 4 4 4 3 3 3 6 5 3 3 5 4 2 3 5 7 7 7 7 8 7 7 6 6 6 6 5
13 15 14 12 14 14 12 11 7 6 6 5 3 5 7 6 4 4 4 4 3 4 2 2 3 3 3 3 3 3 1 1 0 2 2 3 4 5 5 4 6 7 6 4 2 1 2 5 2 1 2 2 3 2 1 2 1 1 2 2 5 4 4 1 2 0 2 5 6 3 4 5 0 1 1 6 7 7 7 7 8 7 7 7 6 6 6 4
15 12 8 10 13 14 13 9 6 8 5 5 6 8 6 5 6 5 3 2 2 4 5 1 2 4 4 2 3 4 1 1 1 1 2 3 3 5 6 4 4 9 9 4 2 3 2 4 3 2 1 3 2 1 1 1 3 4 3 4 3 2 3 2 1 2 2 5 6 2 7 8 2 2 3 5 7 8 8 7 7 7 7 7 6 6 5 4
12 6 6 12 15 13 10 7 9 9 4 3 8 10 6 5 7 6 3 3 1 3 5 4 5 4 5 4 4 4 4 2 2 2 2 3 4 4 6 3 2 4 6 4 1 2 1 3 4 1 2 3 2 2 2 3 2 4 3 2 1 1 2 2 2 2 2 6 7 2 6 7 5 5 6 9 11 12 10 8 8 8 7 6 6 6 5 4
9 2 4 10 16 16 11 9 10 7 3 5 9 8 6 7 8 8 5 4 3 3 3 6 5 3 4 6 4 3 5 5 4 3 3 3 4 4 6 5 2 0 1 5 4 2 2 1 4 1 1 2 2 1 2 2 1 2 1 2 1 2 3 2 2 2 3 6 7 5 6 4 5 7 12 15 14 14 12 8 8 8 7 7 6 5 5 5
7 1 2 8 16 19 15 12 8 4 4 7 7 6 5 6 8 9 9 7 4 4 5 6 5 5 5 5 5 4 4 5 6 4 3 4 4 5 5 5 5 3 3 4 3 1 2 2 3 2 2 1 2 4 6 7 4 3 2 2 2 2 1 1 2 3 3 7 5 5 9 6 3 4 11 15 14 14 12 9 8 7 7 7 6 6 6 5
5 2 3 11 19 20 17 9 4 5 5 6 6 6 7 5 4 7 10 11 8 5 4 5 7 7 5 5 5 4 4 4 5 5 5 5 4 5 6 6 9 7 3 4 2 3 2 3 4 2 1 3 5 6 7 8 7 6 6 6 7 5 3 2 5 3 4 6 3 4 12 9 3 3 7 10 10 11 10 9 7 6 8 8 6 7 6 5
4 4 5 14 22 22 16 5 4 4 5 6 6 6 6 4 5 7 7 8 9 7 4 5 7 7 6 5 5 4 5 4 6 6 5 7 8 7 6 7 10 10 7 3 3 4 2 2 3 5 6 5 5 3 1 3 3 3 4 5 6 6 5 6 7 4 3 3 2 5 13 9 1 5 6 7 8 9 8 8 7 6 8 8 6 6 5 5
4 4 7 16 24 21 11 4 4 5 6 6 6 7 6 4 6 7 6 6 7 6 5 5 5 7 7 5 4 4 5 4 7 8 6 6 8 5 3 8 11 9 6 3 2 2 1 2 3 6 5 3 2 2 4 4 3 1 4 4 5 7 8 8 6 2 1 3 4 6 11 8 1 2 5 6 7 7 7 7 8 7 6 6 6 6 5 5
3 2 3 14 23 18 8 5 7 8 8 7 8 10 8 7 8 8 7 8 6 5 7 6 5 7 7 5 6 6 7 6 7 8 7 6 5 2 1 8 11 8 5 4 4 4 3 2 3 2 6 5 3 2 3 2 1 3 4 5 7 9 6 3 3 1 2 11 11 8 11 9 2 1 3 6 7 7 7 6 7 7 6 5 5 5 5 5
3 3 1 10 19 14 5 4 5 7 9 9 10 12 11 8 9 11 10 9 6 5 6 6 5 6 4 4 5 7 9 10 8 4 4 5 4 2 2 3 6 6 4 2 4 6 4 3 4 3 6 8 8 7 4 2 3 3 3 7 10 11 9 6 3 3 7 13 12 10 13 11 2 1 3 4 6 7 6 4 5 6 6 6 6 5 5 4
3 4 2 5 8 8 4 2 3 4 7 8 8 12 16 13 8 9 11 10 7 6 7 5 4 6 5 6 7 9 12 13 9 4 3 4 4 2 1 1 1 3 3 2 3 4 2 2 6 9 11 12 14 12 2 4 4 4 5 10 11 11 14 11 5 6 8 6 9 14 15 15 11 6 6 6 7 8 6 5 6 5 6 7 6 5 4 2
4 4 5 5 4 6 6 3 5 6 7 9 7 6 12 15 11 7 9 10 8 10 9 5 6 8 7 8 9 11 14 12 9 7 6 5 3 2 1 1 2 2 3 3 2 3 3 4 9 13 17 19 19 15 3 4 8 11 7 9 11 13 16 15 13 15 6 2 14 20 12 15 19 12 10 10 10 9 7 7 7 7 7 6 5 4 3 3
7 3 5 8 4 6 9 9 11 13 14 13 8 7 9 13 11 9 8 8 9 11 9 7 12 16 14 12 10 11 11 7 7 10 9 7 4 1 1 0 2 3 3 2 2 2 4 8 11 12 17 21 18 13 9 8 11 14 10 9 12 15 18 20 22 21 10 8 21 21 12 17 18 11 12 11 9 9 7 7 7 6 6 5 5 4 3 4
7 2 3 9 7 6 10 13 14 17 20 15 10 14 16 14 12 10 6 5 7 13 13 14 17 16 16 16 14 13 12 8 7 12 10 9 9 5 2 2 2 2 3 4 2 1 3 7 9 9 13 19 16 11 11 12 13 17 15 11 14 18 21 21 22 21 17 19 25 23 22 26 18 12 14 10 6 7 5 5 6 6 6 5 5 3 1 2
9 4 4 6 8 7 6 9 12 13 15 14 14 17 14 13 17 13 7 9 12 12 14 19 19 15 19 22 20 20 18 12 12 14 10 10 9 6 4 4 4 3 3 4 2 2 4 3 2 3 7 16 14 9 10 11 12 19 18 13 16 20 21 21 21 18 17 21 26 25 24 25 19 13 13 9 6 6 6 7 7 7 6 6 5 2 1 3
15 12 11 5 6 9 6 7 11 9 10 13 16 15 12 17 21 15 9 16 18 11 12 21 24 16 16 19 21 24 22 16 17 16 11 11 10 7 6 6 8 8 6 5 4 3 5 2 2 4 4 12 7 3 6 5 8 18 21 17 19 20 20 20 18 17 17 20 23 21 17 19 16 7 4 4 6 7 8 8 7 6 6 6 5 3 3 4
14 13 14 6 4 9 9 8 10 9 11 14 15 15 17 19 18 13 10 13 16 14 14 20 22 14 11 17 22 24 20 14 11 7 5 5 3 3 4 6 11 12 9 8 5 3 5 4 2 4 5 6 1 4 1 3 5 15 17 16 21 23 23 20 17 18 20 17 15 15 15 16 10 2 5 6 7 8 8 7 6 6 6 5 5 5 5 3
Wind_Direction
21 22 21 21 20 20 20 20 19 19 19 18 18 19 19 20 22 23 21 17 13 12 21 34 96 149 143 134 116 105 88 67 49 48 57 19 349 346 342 341 346 356 2 2 7 8 2 358 313 324 321 259 54 178 346 22 63 51 75 74 326 236 179 219 131 119 123 119 358 8 70 107 117 328 16 70 82 94 83 76 77 74 73 78 81 75 66 60
18 19 18 18 18 17 18 18 18 17 17 16 16 17 17 18 18 20 20 18 14 12 16 23 60 162 166 146 135 116 95 53 29 39 35 357 349 346 348 358 357 358 5 7 5 2 356 343 326 346 23 264 318 9 358 345 67 72 96 79 249 220 207 166 110 58 93 132 100 355 89 103 124 253 42 81 104 107 95 88 85 81 71 69 70 68 65 62
14 15 15 16 15 15 15 15 16 15 15 14 13 14 15 15 15 17 18 18 15 13 13 15 31 160 178 164 149 119 74 30 20 17 358 349 350 354 3 11 8 4 2 358 347 338 317 297 310 330 22 332 290 67 26 343 32 81 93 46 247 233 265 77 96 105 127 133 102 345 49 99 294 286 87 102 101 93 104 122 105 95 89 78 64 64 64 60
11 12 12 13 12 13 13 13 13 13 12 11 10 10 11 11 11 13 15 17 16 12 12 14 20 81 184 185 164 98 24 44 25 322 341 348 358 9 17 18 17 13 2 358 346 331 313 288 292 300 77 333 312 56 50 312 23 43 108 194 241 280 317 313 87 113 109 97 91 351 39 41 298 349 122 133 96 59 95 130 128 123 117 104 81 68 67 63
7 8 9 9 10 10 10 10 10 11 10 8 8 6 6 7 7 8 10 14 15 12 9 13 22 35 178 201 202 237 28 48 327 327 348 356 14 19 23 25 25 20 11 11 3 359 353 299 290 27 66 345 339 34 351 274 70 17 272 217 242 30 309 296 66 86 73 66 52 50 53 338 304 24 98 131 115 126 121 118 122 125 123 114 106 90 78 71
3 3 5 6 6 6 6 7 7 8 7 6 5 2 1 2 3 3 4 8 12 11 5 8 23 29 54 186 209 232 60 112 309 353 355 5 22 21 29 28 29 27 18 17 12 16 15 358 27 35 14 0 338 104 226 286 72 15 289 283 315 20 315 321 44 66 66 69 41 44 47 307 72 54 45 92 104 130 126 124 119 116 118 112 107 95 82 76
359 359 1 2 3 3 3 4 4 5 5 4 1 360 358 357 359 359 359 2 7 8 3 2 13 69 76 92 196 71 86 181 320 356 0 14 13 18 32 25 27 34 25 21 17 17 16 18 28 20 7 10 358 156 202 327 79 128 266 293 324 344 329 339 32 54 74 85 353 30 26 313 123 106 62 90 109 123 121 121 116 113 112 105 98 91 87 86
357 356 357 359 360 359 360 0 1 1 2 2 360 358 356 353 354 353 353 355 0 3 359 354 352 173 139 48 93 22 28 224 325 0 9 15 5 15 26 23 26 32 36 32 24 15 20 32 13 357 30 14 16 342 332 15 33 139 227 274 306 320 304 335 24 42 66 79 18 48 20 313 146 121 95 121 131 127 122 115 113 111 105 100 98 99 98 88
356 354 354 355 356 356 357 357 358 358 358 359 358 356 354 351 350 348 347 349 355 357 352 347 335 260 252 302 85 18 288 190 9 9 15 19 19 12 16 29 25 25 42 35 23 27 44 44 347 9 46 260 350 334 6 44 306 196 183 293 328 300 286 329 4 36 72 51 43 49 359 327 122 108 85 151 146 133 123 114 114 109 105 105 105 108 100 88
355 353 352 352 353 354 353 354 355 355 355 355 354 354 352 349 345 341 341 343 349 350 347 336 320 351 330 15 81 22 257 84 26 14 26 32 29 12 24 33 24 27 46 34 28 35 61 54 306 269 182 252 329 299 201 112 239 195 66 328 311 283 279 204 209 327 87 232 41 51 322 275 171 111 107 188 161 138 126 117 117 108 111 116 111 112 100 95
353 352 350 349 350 351 351 352 352 352 352 352 351 351 350 345 341 336 334 339 344 343 341 330 297 314 345 81 103 208 222 73 33 27 32 37 35 25 35 33 21 29 44 50 46 36 44 7 328 326 197 315 316 291 244 195 229 101 55 340 308 286 284 217 195 281 296 272 10 38 298 253 242 152 161 177 166 144 130 123 122 114 119 120 117 124 109 103
350 349 348 348 348 348 349 348 349 350 349 350 348 347 347 341 335 331 329 335 341 337 333 330 301 283 332 81 141 181 145 68 44 30 26 34 33 31 41 34 19 24 37 64 61 22 22 5 16 47 267 335 310 309 249 265 212 94 79 355 317 358 324 254 223 241 158 267 323 16 334 273 217 185 165 162 159 145 129 128 131 126 129 129 125 132 117 105
346 347 345 345 347 346 347 346 347 348 346 348 345 343 344 338 332 328 328 335 341 335 326 330 323 282 75 60 169 133 97 61 48 32 29 31 30 37 41 24 13 18 29 57 60 15 7 356 52 147 280 42 281 296 76 292 88 79 89 126 15 28 322 259 228 177 147 241 321 45 322 278 222 171 163 159 154 139 129 135 138 136 137 138 134 127 110 102
342 343 342 342 344 344 344 345 345 345 344 345 343 341 339 335 330 325 329 340 344 335 322 335 354 119 99 222 161 113 96 85 45 22 31 33 34 47 26 10 2 5 18 40 48 18 5 11 59 18 283 159 231 317 347 349 48 80 67 79 85 92 280 266 217 158 167 251 71 93 266 267 194 167 168 165 153 138 137 144 140 144 143 144 146 129 115 98
337 338 339 340 341 342 342 342 343 343 342 343 342 339 337 333 326 325 335 354 352 337 323 352 5 121 80 334 167 133 126 135 28 10 23 26 32 38 354 357 353 4 26 36 27 357 18 46 63 46 282 263 63 4 333 339 7 49 87 321 350 150 264 289 261 167 177 265 86 121 261 268 187 179 176 160 149 138 140 150 148 149 146 147 149 128 117 91
331 335 336 336 338 340 340 340 342 341 341 342 341 338 338 330 321 322 339 9 356 323 121 74 2 113 87 312 161 146 141 168 348 358 8 15 25 15 348 356 43 57 47 42 349 323 40 69 85 135 294 336 57 67 9 10 348 351 101 256 276 274 288 294 299 215 171 221 134 165 238 275 208 184 181 158 150 142 143 155 154 151 149 144 134 115 109 94
325 330 332 334 336 338 339 340 340 341 341 341 341 340 337 325 320 316 329 6 358 196 118 62 340 64 150 106 137 177 199 186 312 324 350 6 7 358 349 6 77 50 49 124 303 341 64 73 212 330 37 20 50 82 41 7 322 326 23 276 268 288 295 277 304 296 168 184 242 218 229 263 240 183 182 170 155 147 150 159 155 151 147 138 123 111 110 121
320 325 330 331 332 336 338 338 339 341 340 341 343 338 330 320 325 280 221 351 353 155 90 15 26 44 245 325 158 245 300 285 298 285 331 354 348 343 341 13 46 19 26 53 10 42 48 358 50 35 15 12 32 72 51 296 239 252 273 279 290 300 281 259 277 269 173 196 243 254 257 267 245 185 187 182 163 153 158 160 155 151 143 135 124 120 127 147
315 322 327 327 330 334 337 338 339 342 341 343 346 340 330 336 336 212 340 352 5 138 321 279 63 91 253 290 212 293 308 293 303 250 326 349 331 317 278 120 44 39 45 26 344 5 106 18 27 23 340 359 47 119 172 222 204 219 239 222 255 283 274 252 257 240 169 187 247 241 249 263 216 194 206 195 167 156 161 156 153 152 141 134 127 137 147 161
312 321 325 325 328 331 337 339 337 342 346 347 350 352 354 4 358 309 345 351 288 221 286 214 178 244 277 317 269 314 302 279 300 195 340 337 318 319 143 98 40 45 51 347 312 309 89 49 346 274 218 197 212 209 197 213 212 227 253 249 250 260 272 265 268 262 159 170 248 231 238 258 226 211 211 193 166 160 164 162 162 153 144 144 141 154 158 172
309 320 323 324 325 328 336 337 337 344 350 355 5 20 59 36 21 314 328 315 266 267 272 231 174 249 265 255 279 341 347 260 308 257 337 329 311 47 105 66 48 21 311 300 307 340 59 22 282 223 200 196 216 226 197 210 243 257 246 263 272 255 261 269 249 223 153 146 264 251 253 259 250 243 218 179 173 179 176 168 166 157 152 156 151 162 169 178
307 316 323 323 324 327 332 337 338 342 350 5 29 70 129 128 130 218 279 304 288 278 273 307 32 279 268 233 253 31 71 32 306 281 327 344 357 145 305 59 73 317 307 1 14 3 12 297 252 215 192 193 235 215 174 200 230 245 255 281 281 260 269 286 273 206 71 340 271 277 272 258 250 254 220 184 184 188 184 168 162 157 151 161 161 165 164 140
304 312 321 322 325 326 329 337 338 341 356 19 48 90 134 142 162 191 166 298 295 297 169 205 196 262 270 253 234 122 89 58 240 282 333 360 36 149 104 83 77 303 352 37 69 4 317 263 234 194 162 147 286 222 162 216 254 239 244 257 265 267 274 282 302 327 326 289 263 278 278 261 244 248 218 189 183 159 167 158 151 154 151 166 172 165 154 139
300 312 319 321 325 322 325 331 335 349 1 32 58 75 113 156 167 161 135 274 291 297 226 209 201 201 202 208 185 132 121 227 170 262 329 12 108 140 130 130 66 55 217 128 133 190 263 259 188 134 136 138 170 281 161 193 267 256 222 218 246 258 238 240 284 328 329 313 284 288 290 271 231 227 204 167 144 139 154 143 140 157 161 161 155 158 160 151
299 309 316 323 324 319 322 320 338 10 353 27 52 50 89 164 180 142 33 6 305 300 282 237 246 203 190 150 146 149 170 299 176 249 323 28 135 126 117 155 78 76 215 176 122 244 261 262 121 121 131 119 151 244 208 184 232 286 239 218 219 204 235 267 338 359 344 314 292 349 308 284 238 197 185 152 154 167 165 150 154 166 171 161 150 165 168 163
304 304 311 325 326 318 317 299 349 7 338 318 20 23 79 181 195 173 59 51 305 278 151 140 268 179 189 157 140 123 18 308 258 269 359 38 115 124 91 101 49 216 194 124 339 274 257 344 86 125 150 124 184 251 232 177 161 284 249 186 156 135 258 284 340 3 286 269 272 96 256 277 285 174 183 174 178 185 178 171 173 176 180 172 166 171 164 171
296 299 308 322 335 326 316 255 290 337 303 259 347 8 54 198 195 194 56 30 297 234 130 289 315 143 180 169 108 119 163 276 349 3 24 49 343 78 131 258 6 265 184 89 342 267 180 64 57 101 126 176 245 258 228 159 140 247 237 132 120 147 266 261 236 237 236 283 293 235 207 267 280 236 189 172 181 194 189 188 186 186 188 174 172 171 164 182
288 300 306 312 337 325 302 298 292 291 223 255 326 355 212 193 182 139 71 19 283 171 113 277 130 132 173 85 85 125 203 218 109 297 294 145 310 57 88 224 182 210 168 114 263 267 189 173 203 159 134 219 231 227 190 143 144 247 213 161 184 216 237 239 222 244 273 19 289 235 180 246 271 256 165 163 186 206 199 193 190 187 185 173 171 174 172 191
287 296 300 306 333 316 276 300 289 262 248 275 322 312 177 180 169 87 75 278 270 84 68 71 120 213 46 60 340 190 210 247 149 255 322 21 295 55 83 213 163 195 234 151 213 256 243 196 189 152 160 226 223 214 175 145 197 240 190 203 261 243 241 225 221 253 35 28 260 226 168 219 264 236 140 163 207 217 201 188 188 187 180 174 169 175 186 198
280 289 296 308 330 310 280 286 261 246 265 290 263 185 164 152 94 69 47 243 254 267 120 106 160 188 99 82 301 223 176 236 171 43 10 35 346 21 124 187 101 142 292 316 237 261 296 152 155 141 185 200 171 183 178 157 194 187 70 352 327 295 270 141 194 82 67 259 256 217 185 201 268 250 162 181 222 202 179 173 186 187 175 172 170 177 190 191
267 280 291 301 319 311 302 289 251 254 277 213 181 164 131 18 78 108 221 241 255 266 119 146 235 121 119 150 243 198 181 252 200 127 263 135 10 12 44 9 33 53 348 337 300 303 340 346 234 211 196 130 109 97 328 26 48 71 66 37 346 313 358 37 3 55 113 255 260 227 202 195 237 245 190 216 241 175 169 175 180 178 169 170 175 182 185 181
260 268 280 287 301 301 290 267 258 308 317 175 180 95 80 33 29 182 229 285 301 220 166 176 213 169 143 130 235 214 194 251 202 158 174 152 145 247 179 205 207 5 324 285 306 322 305 243 241 345 296 130 114 77 338 1 38 76 79 63 9 325 352 354 310 185 218 249 248 188 158 209 240 248 209 222 231 179 173 174 169 164 161 170 179 182 181 177
249 260 275 276 282 290 285 272 275 305 284 181 174 54 83 119 229 216 223 267 254 205 144 127 147 143 132 105 267 225 151 238 217 170 174 134 52 279 260 215 166 159 265 250 336 319 303 298 288 114 288 168 139 153 235 293 116 132 130 118 132 332 327 296 271 271 278 269 250 117 59 270 263 275 226 206 198 169 157 152 153 151 155 171 177 172 178 185
246 256 272 275 271 275 279 279 282 285 229 178 99 72 109 187 236 227 222 234 235 169 86 113 102 90 123 179 237 196 140 264 205 133 66 75 65 271 277 257 177 149 195 338 323 223 243 301 254 181 232 172 168 185 172 148 152 187 165 136 156 164 229 268 253 265 289 289 258 235 313 239 220 294 271 184 141 127 130 133 139 146 156 166 164 163 176 190
252 256 272 276 267 265 265 273 277 250 195 151 100 128 176 209 234 225 226 230 226 100 35 71 94 94 260 267 261 206 198 273 157 101 169 165 174 202 206 227 195 150 125 144 268 192 199 256 246 213 315 148 181 223 147 115 113 242 137 110 185 181 188 247 217 205 291 307 273 216 229 225 188 326 351 110 122 121 129 137 138 151 162 153 156 169 177 180
257 262 271 265 260 258 256 262 253 210 179 133 144 203 210 213 193 195 220 206 179 148 122 3 89 139 253 275 271 248 187 262 141 82 248 208 201 209 204 213 188 169 161 168 225 221 245 267 255 21 352 154 176 217 152 119 149 207 137 174 225 179 145 230 262 52 42 299 273 204 246 271 199 349 53 119 136 141 151 155 147 162 167 154 166 177 170 151
247 256 255 247 252 250 250 254 215 190 161 127 194 216 212 210 195 205 224 164 168 136 124 213 211 187 222 242 241 225 155 301 216 122 246 237 230 202 199 228 187 182 189 173 212 224 231 274 239 153 224 236 193 141 351 1 124 143 182 227 222 124 96 118 272 336 47 266 267 189 243 260 172 206 228 158 165 175 183 176 161 171 168 162 176 174 159 143
234 237 239 240 240 238 241 231 184 173 136 143 222 229 210 207 210 211 189 134 150 103 124 208 222 187 193 212 239 200 165 200 192 168 211 234 245 189 168 197 189 191 198 161 192 248 125 275 271 163 197 258 33 61 326 332 83 136 198 241 131 179 252 131 151 260 236 266 272 228 251 248 191 192 197 189 194 190 191 182 171 180 173 168 178 171 168 176
209 201 258 233 228 231 224 191 168 156 138 191 219 228 212 216 223 218 195 161 160 145 174 220 221 210 198 188 196 182 177 188 174 186 212 202 233 205 171 181 161 127 167 141 173 227 109 218 276 311 245 270 34 86 205 236 43 76 28 315 85 196 223 161 159 189 203 264 274 291 297 261 196 188 181 192 200 188 185 184 178 187 181 173 174 172 183 199
175 200 270 190 202 212 192 165 159 165 198 208 212 221 222 229 228 220 215 204 184 179 203 214 205 216 225 202 194 182 182 190 173 181 213 200 221 228 204 178 150 144 32 75 140 185 98 194 246 314 334 238 192 197 194 190 176 145 173 218 210 184 148 231 226 159 193 253 263 293 287 256 188 183 179 188 197 186 179 178 183 188 177 172 172 173 187 195
156 238 232 174 183 180 159 152 183 189 211 223 220 224 231 241 237 227 224 215 217 221 186 179 192 199 206 214 215 183 169 196 189 190 223 217 212 233 220 176 151 152 94 62 152 195 158 193 223 251 252 224 225 220 203 193 184 180 187 192 198 192 149 246 256 193 198 241 212 244 270 262 197 181 181 179 185 180 172 173 184 185 171 173 178 175 180 185
184 225 178 170 174 162 151 181 211 183 222 222 220 235 232 239 243 237 233 215 221 231 202 192 202 200 205 207 200 177 173 204 201 193 226 221 204 218 217 168 148 147 138 129 211 213 157 145 225 250 245 237 248 252 194 182 170 189 214 194 188 185 171 206 239 224 195 234 186 234 264 273 174 156 167 165 166 164 168 175 176 178 176 173 176 177 176 181
211 198 151 163 171 163 163 224 197 196 233 220 233 251 236 242 247 228 215 207 213 214 213 224 201 205 223 200 176 194 192 213 213 200 219 223 204 223 220 157 145 137 135 155 210 213 149 135 220 264 278 278 293 3 27 40 63 265 242 192 185 206 203 211 232 210 159 222 209 233 259 266 260 163 162 154 157 161 175 182 166 167 176 168 170 180 183 188
203 180 134 168 177 176 186 215 194 209 227 218 235 244 234 242 241 225 209 204 203 183 202 229 207 213 229 184 180 209 196 214 235 213 206 205 201 281 289 168 162 156 167 186 179 178 198 181 169 277 303 298 294 335 346 351 153 228 231 187 204 219 207 244 268 146 232 239 226 234 259 254 231 256 178 149 158 179 189 183 158 157 169 171 177 185 184 189
167 196 165 175 185 193 212 216 197 213 217 215 233 236 232 239 228 218 215 213 202 172 196 230 204 193 205 167 192 217 204 216 239 224 186 198 223 328 344 204 188 181 192 200 174 171 186 190 169 202 266 273 275 281 283 219 185 220 218 196 207 205 191 210 236 188 231 244 229 223 248 252 209 151 222 184 180 200 200 172 152 156 172 178 182 186 179 181
174 209 187 161 186 210 239 226 190 217 206 202 230 233 226 232 231 209 208 215 209 187 205 226 177 175 191 182 200 226 223 222 229 224 168 189 227 284 305 317 23 170 173 151 161 150 135 227 206 212 230 242 256 266 246 127 189 228 207 201 203 198 202 210 214 216 223 249 251 235 236 253 256 227 222 217 198 207 210 181 166 171 181 178 172 170 154 113
198 214 186 158 173 211 223 221 204 223 214 197 214 230 214 220 228 212 204 208 196 197 218 223 183 190 194 181 201 232 232 222 223 231 218 198 220 306 293 103 87 168 153 139 184 127 112 244 224 217 232 240 251 262 236 160 235 249 230 208 202 200 208 211 218 227 202 110 260 251 230 243 254 243 228 224 215 219 212 186 183 182 178 171 153 132 76 23
201 217 185 174 182 200 205 207 201 214 226 217 224 253 233 216 210 203 204 205 194 197 209 222 212 207 197 188 204 234 231 209 216 229 225 217 212 212 340 178 195 224 152 144 258 126 141 246 235 218 239 248 252 263 257 240 252 258 246 215 207 211 215 217 226 231 208 206 252 261 254 246 249 245 239 228 214 224 215 186 184 169 151 142 118 90 37 11
197 252 195 185 202 203 198 199 194 207 223 221 226 241 238 226 216 207 182 176 211 208 201 218 223 208 201 203 208 227 223 187 207 227 217 218 215 178 170 250 219 212 159 160 231 149 157 250 243 221 248 258 255 253 255 254 259 263 253 224 220 229 225 225 233 235 229 236 252 264 266 263 258 248 251 243 195 199 191 165 162 145 140 136 112 90 44 41
193 208 185 182 211 211 195 192 191 206 219 216 225 234 232 228 225 218 183 186 213 210 199 219 227 204 205 213 212 226 225 191 208 227 198 197 219 187 187 215 156 140 187 169 180 231 214 244 237 172 254 267 260 241 241 247 254 262 258 231 229 241 241 237 237 236 234 242 251 256 261 266 265 255 259 252 191 166 153 159 161 147 143 132 117 118 109 88
198 194 186 177 212 203 189 184 189 204 216 213 223 227 222 226 223 214 209 216 220 206 184 213 226 215 211 219 219 228 229 206 216 228 193 186 208 194 199 195 148 150 188 179 168 209 212 230 56 105 236 265 263 206 239 267 274 268 262 240 230 237 240 238 234 229 225 233 247 253 254 260 264 256 233 206 172 159 164 167 155 146 149 136 133 144 107 86
197 192 191 194 221 203 199 197 185 198 221 216 214 217 221 227 219 205 221 234 229 221 201 207 219 219 216 225 226 228 228 214 214 219 177 167 179 176 204 185 164 162 167 173 184 183 179 197 170 147 220 268 1 108 122 35 311 270 256 228 221 228 234 240 243 236 226 222 238 246 241 251 264 180 164 185 168 167 179 169 149 156 161 146 137 133 123 117